Geostationary
NORAD ID: 8747
Int'l Code: 1976-023B
Perigee: 35,695.4 km
Apogee: 35,890.2 km
Inclination: 12.9 °
Period: 1,436.0 minutes
Semi major axis: 42163 km
Launch date: March 15, 1976
Source: United States (US)
Comments: Original purpose was "Air Force sponsored program in space communications"; nuclear-powered; circuits jam-resistant to operate in hostile environment.
Two Line Element Set (TLE):
1 08747U 76023B 13140.48024365 -.00000068 00000-0 00000+0 0 9258
2 08747 012.9147 111.7188 0023107 018.7088 177.1681 01.00275154 81784
Source: AFSPC
NASA's NSSDC Master Catalog entry for LES 9